sat.trackr.live / text

‹ back to catalog

STARLINK-36088

NORAD 66941 · 2025-286S

PAYLOAD ACTIVE UNKNOWN

§ Identity

Operator
Country
US
Launch date
2025-12-07
Launch site
AFWTR
Launch vehicle
Mass (kg)
RCS (m²)

Purposes: comms

External: N2YO · Heavens-Above · Gunter

§ Orbital elements

Epoch: 2026-05-25T00:35:06.064800Z

Period
93.85 min
Inclination
53.1585°
Eccentricity
0.0000992
Mean motion
15.34398180 rev/d
Perigee alt
462.0 km
Apogee alt
463.4 km
Semi-major
6,840.8 km
B*
6.4895e-4
RAAN
3.1936°
Arg perigee
83.8847°
Mean anomaly
276.2269°
Rev number
2,711

§ Raw data

STARLINK-360881 66941U 25286S   26145.02437575  .00021612  00000+0  64895-3 0  99962 66941  53.1585   3.1936 0000992  83.8847 276.2269 15.34398180 27112

JSON: /api/v1/satellites/66941 · /tle

For live sub-satellite position, see the globe view (requires WebGL).

§ Visibility from observer

Set your observer location to see the next 7 days of passes ≥ 10°. The values pass through the URL so the page stays shareable.

No JS? Fill the form by hand. The geolocation button needs JavaScript.